Welcome to the New NWS' Forecast!
Most changes are behind the scenes, but click here for differences you might notice.

Regional Weather Roundup (RWR)

Issued by Gray - Portland, ME (GYX)

                            
529 
ASUS41 KGYX 152105
RWRGYX
WEATHER ROUNDUP FOR MAINE AND NEW HAMPSHIRE
NATIONAL WEATHER SERVICE GRAY ME
500 PM EDT SUN JUL 15 2018

MEZ002-005-006-010-012-015-018-020-021-024-026-027-029-152200-
MAINE
  
CITY           SKY/WX    TMP DP  RH WIND       PRES   REMARKS
PORTLAND       FAIR      73  65  75 S9        29.95F                  
SANFORD        FAIR      75  67  76 E7        29.95F                  
BAR HARBOR     CLOUDY    70  62  76 SW7       29.97S                  
WISCASSET      FAIR      75  66  73 VRB5      29.97S                  
ROCKLAND       PTSUNNY   68  63  84 S9        29.97S                  
FRYEBURG       PTSUNNY   81  69  67 E8        29.93F                  
LEWISTONAUBURN FAIR      77  67  71 SE9       29.94F                  
AUGUSTA        FAIR      79  65  62 SE7       29.95S                  
WATERVILLE     FAIR      78  66  66 E3        29.93S                  
BANGOR         PTSUNNY   76  65  68 S7        29.95S                  
GREENVILLE       N/A     69  64  84 CALM      29.97R                  
MILLINOCKET    FAIR      75  63  66 VRB5      29.95R                  
HOULTON        CLOUDY    79  63  57 SW10      29.91S                  
PRESQUE ISLE   FAIR      76  62  62 CALM      29.93F                  
FRENCHVILLE    FAIR      75  62  64 SW5       29.93S                  
CARIBOU        PTSUNNY   79  63  57 CALM      29.92S                  
$$

NHZ002-005-008-009-011-012-014-152200-
NEW HAMPSHIRE
  
CITY           SKY/WX    TMP DP  RH WIND       PRES   REMARKS
PORTSMOUTH     MOSUNNY   75  66  74 SE8       29.93F                  
ROCHESTER      FAIR      80  71  74 VRB6      29.94F                  
NASHUA         FAIR      86  71  60 E9        29.93S HX  91           
MANCHESTER     TSTM      84  68  58 E7        29.92S                  
CONCORD        FAIR      82  68  62 S10       29.93F                  
LACONIA        FAIR      80  69  69 SW5       29.94S                  
PLYMOUTH       FAIR      88  58  35 W5        29.92R                  
BERLIN         FAIR      85  55  35 VRB7      29.95S                  
WHITEFIELD     PTSUNNY   83  61  47 N7        29.95S                  
JAFFREY        FAIR      86  68  54 VRB7      29.96S                  
KEENE          FAIR      93  70  46 SW7       29.92S HX  99           
LEBANON        FAIR      87  65  47 S8        29.92F                  
MT WASHINGTON  PTSUNNY   57  55  94 NW25        N/A  FOG              
$$

VTZ005-007-008-152200-
VERMONT
  
CITY           SKY/WX    TMP DP  RH WIND       PRES   REMARKS
ST JOHNSBURY     N/A     86  58  38 MISG      29.92S                  
MONTPELIER     FAIR      83  59  44 NW6       30.00S                  
BURLINGTON     FAIR      89  58  34 N10G16    29.93S                  
$$

MAZ007-012-024-CTZ003-RIZ002-NYZ038-NYZ072-152200-
SOUTHERN NEW ENGLAND AND NY
  
CITY           SKY/WX    TMP DP  RH WIND       PRES   REMARKS
BOSTON         PTSUNNY   73  66  78 SE12      29.94F                  
WORCESTER      SUNNY     82  66  57 SE3       29.96S                  
NANTUCKET      FAIR      69  68  96 S3        29.96F                  
PROVIDENCE     PTSUNNY   82  72  71 VRB5      29.93F                  
HARTFORD       FAIR      87  70  56 S8        29.91F HX  92           
ALBANY         PTSUNNY   92  63  38 N6        29.91F HX  93           
NEW YORK CITY  PTSUNNY   86  65  49 W7        29.93F                  
$$

ANZ081-ANZ082-ANZ150-NHZ014-MEZ023>029-152200-
COASTAL MARINE OBSERVATIONS
  
STATION/POSITION TIME  TEMP    WIND        PRES    WAVE
                       AIR SEA DIR/SP/G            HT/PER
                 (UTC) (F)     (DEG/KT/KT) (MB)    (FT/S)
MOUNT DESERT ROC 2100   63     180/  8/  8 1015.6F
MATINICUS ROCK   2000   64     160/ 10/ 10 1014.9R
ISLE OF SHOALS   2000   67     120/  9/ 10 1013.8F
JEFFREYS LEDGE   2036      68                N/A     3/10
$$

.............KEY..............
   WCI - WIND CHILL
   TC  - TEMPERATURE IN CELSIUS
   VSB - VISIBILITY IN MILES
   HX  - HEAT INDEX
   FAIR- INDICATES FEW OR NO CLOUDS BELOW 12,000 FT, WITH NO 
         SIGNIFICANT WEATHER AND/OR OBSTRUCTIONS TO VISIBILITY.